Tracking 20083 objects as of 12-Dec-2019
HD Live streaming from Space Station
objects crossing your sky now

STTW-T1

Track STTW-T1 now!
10-day predictions
STTW-T1 is classified as:


NORAD ID: 14670
Int'l Code: 1984-008A
Perigee: 475.2 km
Apogee: 6,328.9 km
Inclination: 36.1 °
Period: 160.3 minutes
Semi major axis: 9773 km
RCS: 3.9341 m2 (large)
Launch date: January 29, 1984
Source: People's Republic of China (PRC)
Launch site: Xichang Space Center, China (XSC)
aabbcc
Your satellite tracking list
Your tracking list is empty




NASA's NSSDC Master Catalog

Two Line Element Set (TLE):
1 14670U 84008A   19345.80806755 +.00000048 +00000-0 +16541-4 0  9992
2 14670 036.1268 173.8905 2994859 298.2528 034.8100 08.98583184169669
Source of the keplerian elements: AFSPC